EW9652 Weather Reports


Display with metric or nautical units.
time (UTC)temp
F
wind
direction
speed
MPH
gust
MPH
rain 1hr
in
rain 24hr
in
rain mn
in
humidity
%
barometer
mb
20260507122422 39 287 1.0 4.0 0.00 0.00 0.00 88 1023.9
20260507121922 38 281 0.0 4.0 0.00 0.00 0.00 88 1023.9
20260507121423 38 306 0.0 0.0 0.00 0.00 0.00 88 1023.9
20260507120920 38 300 0.0 1.0 0.00 0.00 0.00 88 1023.9
20260507120420 38 302 0.0 3.0 0.00 0.00 0.00 88 1023.8
20260507115917 38 299 0.0 3.0 0.00 0.00 0.00 88 1023.8
20260507115414 38 305 0.0 3.0 0.00 0.00 0.00 88 1023.8
20260507114913 38 304 0.0 2.0 0.00 0.00 0.00 88 1023.8
20260507114400 38 300 1.0 3.0 0.00 0.00 0.00 88 1023.7
20260507113856 38 312 1.0 3.0 0.00 0.00 0.00 87 1023.7
20260507113355 38 317 1.0 3.0 0.00 0.00 0.00 87 1023.7
20260507112852 38 310 1.0 2.0 0.00 0.00 0.00 87 1023.6
20260507112352 38 316 1.0 3.0 0.00 0.00 0.00 87 1023.8
20260507111851 38 301 1.0 3.0 0.00 0.00 0.00 87 1023.8
20260507111340 38 308 1.0 3.0 0.00 0.00 0.00 87 1023.8
20260507110841 38 330 1.0 3.0 0.00 0.00 0.00 87 1023.8
20260507110340 38 330 1.0 4.0 0.00 0.00 0.00 87 1023.8
20260507105841 38 333 2.0 4.0 0.00 0.00 0.00 87 1023.8
20260507105340 38 309 2.0 4.0 0.00 0.00 0.00 86 1023.7
20260507105116 38 326 2.0 4.0 0.00 0.00 0.00 86 1023.7
20260507104841 38 309 2.0 3.0 0.00 0.00 0.00 86 1023.7
20260507103838 39 326 2.0 5.0 0.00 0.00 0.00 85 1023.7
20260507103336 39 333 3.0 6.0 0.00 0.00 0.00 85 1023.7
20260507102836 40 326 1.0 6.0 0.00 0.00 0.00 85 1023.7
20260507102337 40 291 0.0 2.0 0.00 0.00 0.00 86 1023.6
20260507101810 40 311 0.0 1.0 0.00 0.00 0.00 86 1023.5
20260507101312 40 313 0.0 0.0 0.00 0.00 0.00 85 1023.6
20260507101024 40 318 0.0 0.0 0.00 0.00 0.00 85 1023.5
20260507100517 40 318 0.0 0.0 0.00 0.00 0.00 85 1023.5
20260507095735 40 318 0.0 1.0 0.00 0.00 0.00 85 1023.5
20260507095228 40 318 1.0 3.0 0.00 0.00 0.00 85 1023.6
20260507094950 40 323 2.0 4.0 0.00 0.00 0.00 85 1023.6
20260507094201 40 333 2.0 4.0 0.00 0.00 0.00 84 1023.5
20260507093927 40 337 3.0 4.0 0.00 0.00 0.00 84 1023.6
20260507093651 40 335 3.0 4.0 0.00 0.00 0.00 84 1023.7
20260507092648 40 359 3.0 5.0 0.00 0.00 0.00 83 1023.6
20260507092142 40 355 4.0 6.0 0.00 0.00 0.00 83 1023.5
20260507091642 41 352 4.0 6.0 0.00 0.00 0.00 82 1023.6
20260507091139 41 352 4.0 6.0 0.00 0.00 0.00 82 1023.6
20260507090635 41 359 3.0 6.0 0.00 0.00 0.00 81 1023.5
20260507090136 42 344 3.0 5.0 0.00 0.00 0.00 80 1023.4
20260507085634 42 359 2.0 4.0 0.00 0.00 0.00 79 1023.4
20260507085133 42 1 1.0 3.0 0.00 0.00 0.00 79 1023.3
20260507084626 42 11 1.0 3.0 0.00 0.00 0.00 78 1023.3
20260507084124 43 20 1.0 3.0 0.00 0.00 0.00 77 1023.2
20260507083614 43 20 2.0 3.0 0.00 0.00 0.00 77 1023.2
20260507083113 43 22 2.0 4.0 0.00 0.00 0.00 76 1023.0
20260507082614 44 15 2.0 4.0 0.00 0.00 0.00 75 1023.1
20260507082113 44 34 2.0 4.0 0.00 0.00 0.00 75 1022.9
20260507081612 44 63 2.0 4.0 0.00 0.00 0.00 75 1023.0
20260507081342 44 49 2.0 4.0 0.00 0.00 0.00 76 1023.0
20260507080834 44 58 3.0 7.0 0.00 0.00 0.00 75 1023.1
20260507075559 44 84 4.0 8.0 0.00 0.00 0.00 76 1022.9
20260507075054 44 77 6.0 10.0 0.00 0.00 0.00 76 1022.8
20260507074822 44 57 7.0 11.0 0.00 0.00 0.00 77 1022.6
20260507074324 44 67 6.0 11.0 0.00 0.00 0.00 77 1022.9
20260507073549 44 101 5.0 9.0 0.00 0.00 0.00 77 1022.9
20260507073049 44 108 4.0 7.0 0.00 0.00 0.00 78 1023.3
20260507072550 44 29 4.0 7.0 0.00 0.00 0.00 78 1024.2
20260507072047 44 20 5.0 7.0 0.00 0.00 0.00 77 1024.1
20260507071547 44 1 4.0 7.0 0.00 0.00 0.00 77 1024.3
20260507071049 44 359 3.0 6.0 0.00 0.00 0.00 76 1024.2
20260507070544 44 25 2.0 4.0 0.00 0.00 0.00 77 1024.2
20260507070043 44 36 1.0 4.0 0.00 0.00 0.00 77 1024.2
20260507065807 44 22 1.0 4.0 0.00 0.00 0.00 77 1024.4
20260507065036 44 51 2.0 4.0 0.00 0.00 0.00 77 1024.4
20260507064533 44 20 3.0 6.0 0.00 0.00 0.00 76 1024.4
20260507064036 44 2 4.0 7.0 0.00 0.00 0.00 76 1024.2
20260507063533 45 357 4.0 7.0 0.00 0.00 0.00 75 1024.2
20260507063030 45 0 4.0 8.0 0.00 0.00 0.00 75 1024.5
20260507062530 45 19 6.0 9.0 0.00 0.00 0.00 75 1024.5
20260507062030 45 1 6.0 10.0 0.00 0.00 0.00 75 1024.7
20260507061530 45 349 6.0 10.0 0.00 0.00 0.00 75 1024.6
20260507061030 45 17 5.0 8.0 0.00 0.00 0.00 74 1024.5
20260507060529 46 1 5.0 8.0 0.00 0.00 0.00 73 1024.5
20260507060300 45 8 7.0 11.0 0.00 0.00 0.00 73 1024.2
20260507055528 45 8 7.0 11.0 0.00 0.00 0.00 73 1023.9
20260507055025 45 6 8.0 11.0 0.00 0.00 0.00 71 1023.8
20260507054525 46 15 7.0 11.0 0.00 0.00 0.00 70 1023.6
20260507054023 46 16 7.0 11.0 0.00 0.00 0.00 70 1023.3
20260507053521 46 32 7.0 11.0 0.00 0.00 0.00 70 1023.2
20260507053022 46 20 7.0 11.0 0.00 0.00 0.00 70 1023.6
20260507052753 46 11 7.0 12.0 0.00 0.00 0.00 69 1023.6
20260507052021 46 29 9.0 14.0 0.00 0.00 0.00 69 1023.5
20260507051519 46 32 10.0 18.0 0.00 0.00 0.00 69 1023.5
20260507051020 46 28 10.0 18.0 0.00 0.00 0.00 68 1023.5
20260507050517 46 5 10.0 14.0 0.00 0.00 0.00 67 1023.6
20260507050015 46 20 10.0 15.0 0.00 0.00 0.00 67 1023.6
20260507045515 46 0 10.0 17.0 0.00 0.00 0.00 67 1023.4
20260507045247 46 5 10.0 17.0 0.00 0.00 0.00 67 1023.2
20260507044515 46 16 10.0 16.0 0.00 0.00 0.00 67 1023.2
20260507044015 46 22 12.0 18.0 0.00 0.00 0.00 67 1023.1
20260507043510 46 20 12.0 18.0 0.00 0.00 0.00 67 1023.0
20260507043010 46 30 12.0 18.0 0.00 0.00 0.00 67 1022.8
20260507042740 46 1 10.0 15.0 0.00 0.00 0.00 68 1022.7
20260507042013 47 359 10.0 16.0 0.00 0.00 0.00 68 1022.9
20260507042009 46 27 9.0 14.0 0.00 0.00 0.00 68 1022.9
20260507041006 47 12 12.0 18.0 0.00 0.00 0.00 67 1022.7
20260507040736 47 1 12.0 18.0 0.00 0.00 0.00 67 1022.4
20260507040233 47 22 11.0 16.0 0.00 0.00 0.00 67 1022.4
20260507035458 47 8 11.0 15.0 0.00 0.00 0.00 68 1022.1
20260507035229 48 14 12.0 17.0 0.00 0.00 0.00 68 1021.9
20260507034458 48 22 13.0 20.0 0.00 0.00 0.00 68 1021.9
20260507033957 48 24 12.0 20.0 0.00 0.00 0.00 68 1021.8
20260507033732 48 5 10.0 18.0 0.00 0.00 0.00 69 1021.8
20260507033457 48 37 11.0 18.0 0.00 0.00 0.00 68 1021.9
20260507032457 48 1 11.0 18.0 0.00 0.00 0.00 69 1022.0
20260507031956 48 13 11.0 18.0 0.00 0.00 0.00 69 1021.6
20260507031454 49 5 12.0 21.0 0.00 0.00 0.00 68 1021.6
20260507030954 49 19 12.0 23.0 0.00 0.00 0.00 67 1021.5
20260507030454 50 355 11.0 23.0 0.00 0.00 0.00 66 1021.5
20260507025955 51 24 9.0 15.0 0.00 0.00 0.00 68 1021.4
20260507025451 51 23 9.0 15.0 0.00 0.00 0.00 69 1021.4
20260507025221 51 20 10.0 15.0 0.00 0.00 0.00 67 1021.4
20260507024720 51 6 13.0 20.0 0.00 0.00 0.00 66 1021.2
20260507023951 52 29 17.0 22.0 0.00 0.00 0.00 62 1020.8
20260507023450 53 24 17.0 25.0 0.00 0.00 0.00 57 1020.3
20260507022950 55 23 14.0 25.0 0.00 0.00 0.00 53 1020.2
20260507022445 56 15 12.0 20.0 0.00 0.00 0.00 50 1020.5
20260507022217 57 0 11.0 17.0 0.00 0.00 0.00 49 1020.2
20260507021447 57 20 11.0 15.0 0.00 0.00 0.00 49 1020.0
20260507020944 57 11 11.0 18.0 0.00 0.00 0.00 49 1019.8
20260507020444 57 1 11.0 18.0 0.00 0.00 0.00 48 1019.6
20260507015942 57 8 10.0 17.0 0.00 0.00 0.00 48 1019.1
20260507015442 57 53 11.0 17.0 0.00 0.00 0.00 48 1018.9
20260507014943 57 25 10.0 16.0 0.00 0.00 0.00 48 1018.6
20260507014441 57 36 10.0 16.0 0.00 0.00 0.00 48 1018.5
20260507013939 57 63 11.0 16.0 0.00 0.00 0.00 48 1018.3
20260507013441 57 49 12.0 20.0 0.00 0.00 0.00 48 1018.1
20260507012940 58 44 13.0 20.0 0.00 0.00 0.00 48 1017.8
20260507012440 58 35 13.0 21.0 0.00 0.00 0.00 47 1017.5
20260507011938 58 40 12.0 21.0 0.00 0.00 0.00 46 1017.3
20260507011709 58 75 11.0 21.0 0.00 0.00 0.00 47 1017.1
20260507010936 59 53 11.0 18.0 0.00 0.00 0.00 46 1016.7
20260507010435 59 36 12.0 19.0 0.00 0.00 0.00 46 1016.3
20260507005936 59 46 12.0 19.0 0.00 0.00 0.00 46 1016.3
20260507005433 59 108 11.0 18.0 0.00 0.00 0.00 46 1016.0
20260507004933 60 70 12.0 21.0 0.00 0.00 0.00 45 1016.1
20260507004434 60 46 12.0 21.0 0.00 0.00 0.00 45 1016.1
20260507003933 60 101 11.0 18.0 0.00 0.00 0.00 44 1015.9
20260507003439 60 57 11.0 21.0 0.00 0.00 0.00 44 1015.8
20260507003434 60 96 11.0 21.0 0.00 0.00 0.00 44 1015.8
20260507002432 60 80 12.0 20.0 0.00 0.00 0.00 44 1015.8
20260507001931 61 41 13.0 21.0 0.00 0.00 0.00 44 1015.7
20260507001429 61 57 14.0 23.0 0.00 0.00 0.00 43 1015.7
20260507000930 62 22 15.0 23.0 0.00 0.00 0.00 42 1015.5
20260507000429 62 102 15.0 23.0 0.00 0.00 0.00 42 1015.5
20260506235928 63 97 15.0 23.0 0.00 0.00 0.00 41 1015.0
20260506235427 63 75 14.0 22.0 0.00 0.00 0.00 41 1015.1
20260506234925 63 128 14.0 22.0 0.00 0.00 0.00 41 1015.0
20260506234426 62 40 14.0 22.0 0.00 0.00 0.00 41 1014.8
20260506233925 63 91 16.0 27.0 0.00 0.00 0.00 41 1014.9
20260506233425 64 91 19.0 27.0 0.00 0.00 0.00 39 1014.7
20260506232924 65 72 18.0 26.0 0.00 0.00 0.00 38 1015.0
20260506232423 64 84 17.0 24.0 0.00 0.00 0.00 39 1015.0
20260506231924 64 97 17.0 26.0 0.00 0.00 0.00 40 1015.0
20260506231424 64 94 15.0 26.0 0.00 0.00 0.00 39 1014.9
20260506230927 64 74 15.0 26.0 0.00 0.00 0.00 39 1015.0
20260506230923 64 93 16.0 26.0 0.00 0.00 0.00 40 1014.8
20260506230152 64 76 13.0 25.0 0.00 0.00 0.00 38 1014.9
20260506225421 64 79 14.0 24.0 0.00 0.00 0.00 38 1014.8
20260506224919 65 68 14.0 24.0 0.00 0.00 0.00 38 1014.6
20260506224420 65 44 14.0 23.0 0.00 0.00 0.00 38 1014.6
20260506223918 65 131 14.0 23.0 0.00 0.00 0.00 38 1014.7
20260506223415 65 76 13.0 20.0 0.00 0.00 0.00 38 1014.6
20260506222915 64 86 11.0 18.0 0.00 0.00 0.00 38 1014.6
20260506222415 64 52 13.0 21.0 0.00 0.00 0.00 38 1014.7
20260506221915 64 43 14.0 22.0 0.00 0.00 0.00 38 1014.7
20260506221646 65 95 12.0 22.0 0.00 0.00 0.00 37 1014.8
20260506220912 65 91 11.0 20.0 0.00 0.00 0.00 36 1014.7
20260506220409 66 359 12.0 20.0 0.00 0.00 0.00 36 1014.7
20260506215909 67 82 14.0 22.0 0.00 0.00 0.00 35 1014.8
20260506215409 67 68 12.0 22.0 0.00 0.00 0.00 35 1014.6
20260506214908 68 103 8.0 21.0 0.00 0.00 0.00 33 1014.7
20260506214638 69 32 5.0 12.0 0.00 0.00 0.00 33 1014.5
20260506213908 68 100 3.0 9.0 0.00 0.00 0.00 33 1014.7
20260506213406 68 102 5.0 13.0 0.00 0.00 0.00 34 1014.7
20260506212905 68 158 7.0 14.0 0.00 0.00 0.00 34 1014.9
20260506212403 68 123 6.0 14.0 0.00 0.00 0.00 34 1015.0
20260506211903 67 50 5.0 12.0 0.00 0.00 0.00 35 1015.0
20260506211403 67 36 5.0 12.0 0.00 0.00 0.00 36 1015.0
20260506210901 66 58 6.0 13.0 0.00 0.00 0.00 36 1015.1
20260506210401 65 98 6.0 13.0 0.00 0.00 0.00 37 1015.1
20260506205903 65 24 7.0 13.0 0.00 0.00 0.00 36 1015.1
20260506205359 65 37 7.0 15.0 0.00 0.00 0.00 36 1015.1
20260506204859 66 59 8.0 15.0 0.00 0.00 0.00 36 1015.2
20260506204629 65 32 10.0 16.0 0.00 0.00 0.00 36 1015.2
20260506203858 65 113 8.0 16.0 0.00 0.00 0.00 36 1015.3
20260506203629 65 146 7.0 16.0 0.00 0.00 0.00 38 1015.4
20260506202858 65 55 8.0 15.0 0.00 0.00 0.00 37 1015.4
20260506202626 64 24 7.0 14.0 0.00 0.00 0.00 38 1015.5
20260506201853 64 60 5.0 11.0 0.00 0.00 0.00 37 1015.7
20260506201353 64 134 6.0 13.0 0.00 0.00 0.00 38 1015.6
20260506200856 64 69 7.0 13.0 0.00 0.00 0.00 37 1015.6
20260506200623 65 102 8.0 14.0 0.00 0.00 0.00 36 1015.7
20260506195853 65 71 8.0 15.0 0.00 0.00 0.00 37 1015.7
20260506195351 65 103 7.0 17.0 0.00 0.00 0.00 37 1015.7
20260506194851 65 117 6.0 17.0 0.00 0.00 0.00 37 1015.7
20260506194730 65 122 8.0 16.0 0.00 0.00 0.00 37 1015.7
20260506194621 65 56 7.0 16.0 0.00 0.00 0.00 36 1015.6
20260506193351 65 70 6.0 14.0 0.00 0.00 0.00 37 1015.6
20260506192855 65 226 3.0 8.0 0.00 0.00 0.00 37 1015.9
20260506192851 65 38 4.0 11.0 0.00 0.00 0.00 37 1015.8
20260506191851 64 236 4.0 10.0 0.00 0.00 0.00 37 1016.0
20260506191349 64 143 4.0 12.0 0.00 0.00 0.00 37 1016.1
20260506190844 64 207 3.0 12.0 0.00 0.00 0.00 37 1016.2
20260506190345 64 238 3.0 9.0 0.00 0.00 0.00 38 1016.3
20260506185843 64 129 4.0 9.0 0.00 0.00 0.00 40 1016.4
20260506185343 63 281 4.0 10.0 0.00 0.00 0.00 39 1016.5
20260506184843 63 220 2.0 10.0 0.00 0.00 0.00 39 1016.6
20260506184343 63 98 2.0 6.0 0.00 0.00 0.00 40 1016.7
20260506183843 63 55 3.0 9.0 0.00 0.00 0.00 41 1016.8
20260506183344 62 109 5.0 13.0 0.00 0.00 0.00 41 1017.0
20260506182841 62 114 4.0 13.0 0.00 0.00 0.00 41 1016.8
20260506182339 62 103 3.0 10.0 0.00 0.00 0.00 42 1017.1
20260506181839 62 150 3.0 10.0 0.00 0.00 0.00 43 1017.2
20260506181336 61 56 3.0 10.0 0.00 0.00 0.00 44 1017.2
20260506180837 60 139 5.0 11.0 0.00 0.00 0.00 45 1017.1
20260506180337 60 96 4.0 11.0 0.00 0.00 0.00 46 1017.2
20260506175834 59 98 4.0 8.0 0.00 0.00 0.00 46 1017.4
20260506175335 59 49 6.0 13.0 0.00 0.00 0.00 47 1017.5
20260506174835 59 53 5.0 13.0 0.00 0.00 0.00 47 1017.5
20260506174604 59 110 3.0 11.0 0.00 0.00 0.00 48 1017.6
20260506173832 59 41 2.0 10.0 0.00 0.00 0.00 48 1017.7
20260506173333 58 140 3.0 9.0 0.00 0.00 0.00 49 1017.7
20260506172833 58 280 3.0 9.0 0.00 0.00 0.00 49 1017.9
20260506172325 57 151 5.0 12.0 0.00 0.00 0.00 50 1017.8
20260506172054 57 60 5.0 12.0 0.00 0.00 0.00 49 1017.8
20260506171315 57 106 3.0 12.0 0.00 0.00 0.00 50 1017.9
20260506170811 57 32 3.0 10.0 0.00 0.00 0.00 51 1017.8
20260506170308 57 65 4.0 10.0 0.00 0.00 0.00 50 1017.9
20260506165809 57 85 2.0 10.0 0.00 0.00 0.00 51 1017.9
20260506165309 56 122 1.0 6.0 0.00 0.00 0.00 53 1017.9
20260506164808 56 79 3.0 9.0 0.00 0.00 0.00 53 1017.9
20260506164307 55 98 4.0 10.0 0.00 0.00 0.00 54 1017.9
20260506163807 55 141 4.0 12.0 0.00 0.00 0.00 55 1017.8
20260506163305 55 142 3.0 12.0 0.00 0.00 0.00 56 1017.8
20260506162804 54 44 2.0 7.0 0.00 0.00 0.00 59 1017.9
20260506162306 54 159 3.0 7.0 0.00 0.00 0.00 59 1017.9
20260506161802 53 178 2.0 6.0 0.00 0.00 0.00 60 1017.9
20260506161303 53 101 2.0 7.0 0.00 0.00 0.00 61 1017.9
20260506160801 52 215 2.0 8.0 0.00 0.00 0.00 62 1017.9
20260506160301 52 117 4.0 9.0 0.00 0.00 0.00 62 1017.8
20260506155801 52 113 3.0 9.0 0.00 0.00 0.00 63 1017.8
20260506155534 51 111 3.0 10.0 0.00 0.00 0.00 64 1017.7
20260506155259 51 146 3.0 10.0 0.00 0.00 0.00 64 1017.7
20260506154259 51 143 3.0 8.0 0.00 0.00 0.00 65 1017.6
20260506153756 51 116 4.0 8.0 0.00 0.00 0.00 65 1017.7
20260506153257 51 101 3.0 7.0 0.00 0.00 0.00 66 1017.6
20260506152757 49 156 2.0 7.0 0.00 0.00 0.00 69 1017.5
20260506152254 49 158 2.0 7.0 0.00 0.00 0.00 70 1017.4
20260506151755 48 129 3.0 7.0 0.00 0.00 0.00 71 1017.4
20260506151255 48 162 3.0 8.0 0.00 0.00 0.00 71 1017.4
20260506150755 48 147 3.0 8.0 0.00 0.00 0.00 72 1017.4
20260506150304 47 113 3.0 5.0 0.00 0.00 0.00 73 1017.4
20260506145752 47 7 2.0 6.0 0.00 0.00 0.00 74 1017.5
20260506145252 47 38 2.0 8.0 0.00 0.00 0.00 75 1017.4
20260506145017 46 74 3.0 8.0 0.00 0.00 0.00 75 1017.4
20260506144518 46 129 2.0 6.0 0.00 0.00 0.00 76 1017.3
20260506143743 45 111 3.0 8.0 0.00 0.00 0.00 77 1017.3
20260506143241 45 202 4.0 8.0 0.00 0.00 0.00 77 1017.2
20260506142740 45 141 3.0 9.0 0.00 0.00 0.00 78 1017.2
20260506142241 45 128 5.0 9.0 0.00 0.00 0.00 79 1017.2
20260506141737 44 94 6.0 12.0 0.00 0.00 0.00 79 1017.2
20260506141238 44 108 6.0 12.0 0.00 0.00 0.00 79 1017.1
20260506141007 44 58 6.0 11.0 0.00 0.00 0.00 79 1017.1
20260506140235 44 120 7.0 11.0 0.00 0.00 0.00 80 1017.1
20260506140007 44 135 6.0 12.0 0.00 0.00 0.00 80 1017.1
20260506135233 44 120 6.0 12.0 0.00 0.00 0.00 79 1017.0
20260506134733 44 99 6.0 12.0 0.00 0.00 0.00 79 1017.0
20260506134233 44 110 6.0 10.0 0.00 0.00 0.00 80 1016.9
20260506133733 45 105 6.0 13.0 0.00 0.00 0.00 80 1016.8
20260506133233 44 124 7.0 15.0 0.00 0.00 0.00 79 1016.7
20260506132733 45 113 6.0 12.0 0.00 0.00 0.00 79 1016.7
20260506132503 45 103 6.0 12.0 0.00 0.00 0.00 79 1016.8
20260506131733 45 107 8.0 13.0 0.00 0.00 0.00 79 1016.7
20260506131232 45 95 8.0 13.0 0.00 0.00 0.00 79 1016.8
20260506130733 45 96 8.0 13.0 0.00 0.00 0.00 79 1016.7
20260506130233 44 89 9.0 14.0 0.00 0.00 0.00 79 1016.8
20260506125959 44 112 8.0 14.0 0.00 0.00 0.00 78 1016.8
20260506125228 44 106 7.0 11.0 0.00 0.00 0.00 79 1016.8
20260506124727 44 98 8.0 11.0 0.00 0.00 0.00 79 1016.8
20260506124226 44 99 8.0 11.0 0.00 0.00 0.00 79 1016.9
20260506123725 44 88 6.0 11.0 0.00 0.00 0.00 79 1016.8
20260506123224 45 104 4.0 8.0 0.00 0.00 0.00 79 1017.0
20260506122724 44 90 6.0 12.0 0.00 0.00 0.00 78 1017.1